Flag for U.S.A. Weather past 2 weeks in Charleston, West Virginia, U.S.A.

Now
65 °F

Passing clouds.


Feels Like: 65 °F
Forecast: 63 / 85 °F
Wind: No wind

Location: Yeager Airport

Current Time: May 26, 2015 at 4:21:45 AM

Latest Report: May 26, 2015 at 3:54 AM


Visibility: 10 mi

Pressure: 30.13 "Hg

Humidity: 94%

Dew point: 63 °F

Location of CharlestonLocation

Historic Weather in Charleston — Graph

°F

Charleston temperature yesterday

Maximum temperature yesterday: 85 °F (at 1:54 PM)
Minimum temperature yesterday: 57 °F (at 6:54 AM)
Average temperature yesterday: 73 °F

Past Weeks' High & Low Weather Summary

 TemperatureHumidityPressure
High88 °F (May 11, 2:54 PM)100% (May 17, 3:56 AM)30.42 "Hg (May 17, 3:56 AM)
Low43 °F (May 14, 5:54 AM)29% (May 23, 3:54 PM)29.87 "Hg (May 21, 2:54 AM)
Average66 °F70%30.15 "Hg
* Reported May 11 2:54 AM — May 26 2:54 AM, Charleston, Weather by CustomWeather, © 2015

Note: Actual official high and low records may vary slightly from our data, if they occured in-between our weather recording intervals... More about our weather records

Advertising

Charleston weather history for previous 24 hours

 ConditionsComfort  
Time TempWeatherWind HumidityBarometerVisibility
2:54 AM
Tue, May 26
65 °FPassing clouds.No wind94%30.14 "Hg10 mi
1:54 AM67 °FPassing clouds.No wind90%30.13 "Hg10 mi
12:54 AM68 °FPassing clouds.No wind87%30.12 "Hg10 mi
11:54 PM
Mon, May 25
69 °FPassing clouds.No wind84%30.11 "Hg10 mi
10:54 PM71 °FPassing clouds.No wind78%30.11 "Hg10 mi
9:54 PM73 °FPassing clouds.No wind74%30.11 "Hg10 mi
8:54 PM76 °FScattered clouds.No wind64%30.11 "Hg10 mi
7:54 PM82 °FScattered clouds.6 mph48%30.11 "Hg10 mi
6:54 PM84 °FScattered clouds.7 mph45%30.11 "Hg10 mi
5:54 PM85 °FScattered clouds.6 mph43%30.11 "Hg10 mi
4:54 PM83 °FPartly sunny.8 mph46%30.13 "Hg10 mi
3:54 PM84 °FBroken clouds.7 mph43%30.14 "Hg10 mi
2:54 PM84 °FScattered clouds.5 mph41%30.15 "Hg10 mi
1:54 PM85 °FScattered clouds.8 mph39%30.16 "Hg10 mi
12:54 PM84 °FScattered clouds.9 mph38%30.17 "Hg10 mi
11:54 AM82 °FScattered clouds.7 mph40%30.19 "Hg10 mi
10:54 AM77 °FScattered clouds.7 mph47%30.19 "Hg10 mi
9:54 AM75 °FBroken clouds.8 mph50%30.20 "Hg10 mi
8:54 AM70 °FBroken clouds.5 mph61%30.20 "Hg10 mi
7:54 AM60 °FScattered clouds.No wind83%30.19 "Hg10 mi
6:54 AM57 °FPassing clouds.No wind90%30.18 "Hg10 mi
5:54 AM58 °FPassing clouds.No wind84%30.18 "Hg10 mi
4:54 AM59 °FClear.No wind84%30.17 "Hg10 mi
Weather by CustomWeather, © 2015

See weather overviewHow to use our weather pages